Location: Unspecified
(38.0989°N, 0.6729°W)
Time: 12:03:00
(UTC+01:00)

N. Korean satellite - Visible Passes

Search period start: 20 January 2018 00:00
Search period end: 30 January 2018 00:00
Orbit: 459 x 515 km, 97.2° (Epoch: 19 January)

Date Brightness Start Highest point End Pass type
(mag) Time Alt. Az. Time Alt. Az. Time Alt. Az.
20 Jan 6.8 18:40:32 10° SSE 18:44:00 45° ENE 18:47:26 10° N visible
21 Jan 6.6 07:42:31 10° NNE 07:45:58 80° ESE 07:49:25 10° S visible
21 Jan 9.6 19:51:17 10° SW 19:53:53 19° W 19:56:28 10° NW visible
22 Jan 8.4 07:19:04 10° NNE 07:22:16 34° E 07:25:27 10° SSE visible
22 Jan 8.2 19:26:46 10° SSW 19:30:08 37° W 19:33:28 10° NNW visible
23 Jan 9.7 06:56:09 10° NE 06:58:30 17° E 07:00:50 10° SE visible
23 Jan 6.6 19:02:51 10° S 19:06:27 84° WSW 19:09:59 10° NNW visible
24 Jan 6.9 18:39:25 10° SSE 18:42:49 43° ENE 18:46:11 10° N visible
25 Jan 6.7 07:41:18 10° NNE 07:44:45 77° E 07:48:14 10° S visible
25 Jan 9.5 19:50:07 10° SW 19:52:42 19° W 19:55:15 10° NW visible
26 Jan 8.5 07:17:52 10° NNE 07:21:03 34° E 07:24:15 10° SSE visible
26 Jan 8.1 19:25:36 10° SSW 19:28:56 38° W 19:32:14 10° NNW visible
27 Jan 9.8 06:54:57 10° NE 06:57:16 17° E 06:59:35 10° SE visible
27 Jan 6.5 19:01:41 10° S 19:05:14 86° W 19:08:45 10° NNW visible
29 Jan 6.8 07:40:03 10° NNE 07:43:31 75° ESE 07:47:01 10° S visible
29 Jan 9.5 19:48:52 10° SW 19:51:27 19° W 19:54:01 10° NW visible
